Silver City, NM

10:48 PM MST on December 10, 2019 (GMT -0700)
Grant County

Weather History for KSVC - November, 2019

Change the Weather History Date:

Tuesday, November 19, 2019

  Actual Average (KDMN) Record (KDMN)
Temperature  
Mean Temperature 54 °F -  
Max Temperature 69 °F 64 °F 79 °F (1966)
Min Temperature 38 °F 30 °F 12 °F (1948)
Degree Days  
Heating Degree Days 12    
Growing Degree Days 4 (Base 50)    
Moisture  
Dew Point 31 °F    
Average Humidity 52    
Maximum Humidity 95    
Minimum Humidity 17    
Precipitation  
Precipitation 0.19 in - - ()
Sea Level Pressure  
Sea Level Pressure 30.01 in    
Wind  
Wind Speed 8 mph (NW)    
Max Wind Speed 21 mph    
Max Gust Speed 31 mph    
Visibility 10 miles    
Events Rain , Thunderstorm    
Averages and records for this station are not official NWS values.
T = Trace of Precipitation, MM = Missing Value Source: NWS Daily Summary

Daily Weather History Graph

Daily Weather History Graph

Search for Another Location

Airport or City:

Astronomy

Nov. 19, 2019 Rise Set
Actual Time 6:46 AM MST 5:09 PM MST
Civil Twilight 6:19 AM MST 5:36 PM MST
Nautical Twilight 5:49 AM MST 6:05 PM MST
Astronomical Twilight 5:20 AM MST 6:35 PM MST
Moon No Moon Rise 1:00 PM MST (11/19)
Length of Visible Light 11h 16m
Length of Day
10h 23m
Waning Gibbous, 51% of the Moon is Illuminated
Nov 19
Waning Gibbous
Nov 19
Last Quarter
Nov 26
New
Dec 3
First Quarter
Dec 11
Full

Hourly Weather History & Observations

Time (MST) Temp. Windchill Dew Point Humidity Pressure Visibility Wind Dir Wind Speed Gust Speed Precip Events Conditions
12:15 AM 42.6 °F 40.9 °F 21.0 °F 42% 30.09 in 10.0 mi SW 3.5 mph - N/A   Clear
12:35 AM 43.7 °F 39.7 °F 21.0 °F 41% 30.08 in 10.0 mi West 6.9 mph - N/A   Clear
12:55 AM 41.7 °F 36.1 °F 20.7 °F 43% 30.08 in 10.0 mi WNW 9.2 mph - N/A   Scattered Clouds
1:15 AM 42.6 °F 37.2 °F 21.0 °F 42% 30.08 in 10.0 mi NNW 9.2 mph - N/A   Mostly Cloudy
1:35 AM 42.4 °F 37.0 °F 21.7 °F 44% 30.08 in 10.0 mi North 9.2 mph - N/A   Mostly Cloudy
1:55 AM 43.2 °F 37.4 °F 21.9 °F 43% 30.08 in 10.0 mi North 10.4 mph - N/A   Scattered Clouds
2:15 AM 38.8 °F 33.2 °F 21.2 °F 49% 30.08 in 10.0 mi NNW 8.1 mph - N/A   Clear
2:35 AM 39.2 °F 33.0 °F 21.6 °F 49% 30.08 in 10.0 mi NW 9.2 mph - N/A   Scattered Clouds
2:55 AM 38.3 °F 31.4 °F 21.7 °F 51% 30.07 in 10.0 mi NW 10.4 mph - N/A   Scattered Clouds
3:15 AM 43.3 °F 37.2 °F 21.6 °F 42% 30.07 in 10.0 mi NNW 11.5 mph - N/A   Clear
3:35 AM 44.1 °F 39.0 °F 21.7 °F 41% 30.07 in 10.0 mi NNW 9.2 mph - N/A   Clear
3:55 AM 43.0 °F 38.8 °F 22.1 °F 44% 30.06 in 10.0 mi NNW 6.9 mph - N/A   Clear
4:15 AM 42.6 °F 39.0 °F 22.1 °F 44% 30.06 in 10.0 mi North 5.8 mph - N/A   Clear
4:35 AM 40.6 °F 34.8 °F 21.9 °F 47% 30.06 in 10.0 mi North 9.2 mph - N/A   Clear
4:55 AM 43.2 °F 37.0 °F 21.9 °F 43% 30.05 in 10.0 mi North 11.5 mph - N/A   Clear
5:15 AM 43.2 °F 37.0 °F 21.9 °F 43% 30.05 in 10.0 mi NNW 11.5 mph - N/A   Clear
5:35 AM 42.6 °F 36.8 °F 21.9 °F 44% 30.05 in 10.0 mi NNW 10.4 mph - N/A   Clear
5:55 AM 42.3 °F 36.3 °F 21.7 °F 44% 30.05 in 10.0 mi NNW 10.4 mph - N/A   Clear
6:15 AM 41.5 °F 37.1 °F 21.6 °F 45% 30.06 in 10.0 mi NNW 6.9 mph - N/A   Clear
6:35 AM 41.7 °F 36.1 °F 21.7 °F 45% 30.06 in 10.0 mi North 9.2 mph - N/A   Clear
6:55 AM 38.7 °F 32.4 °F 21.2 °F 50% 30.06 in 10.0 mi NNW 9.2 mph - N/A   Clear
7:15 AM 39.9 °F 35.1 °F 22.3 °F 49% 30.07 in 10.0 mi NW 6.9 mph - N/A   Clear
7:35 AM 46.6 °F - 23.0 °F 39% 30.08 in 10.0 mi NW 10.4 mph - N/A   Clear
7:55 AM 50.7 °F - 23.0 °F 34% 30.08 in 10.0 mi NW 10.4 mph - N/A   Clear
8:15 AM 53.1 °F - 22.6 °F 31% 30.08 in 10.0 mi WNW 9.2 mph - N/A   Clear
8:35 AM 55.4 °F - 22.1 °F 27% 30.10 in 10.0 mi WNW 10.4 mph - N/A   Clear
8:55 AM 58.1 °F - 22.3 °F 25% 30.10 in 10.0 mi NW 8.1 mph - N/A   Clear
9:15 AM 61.7 °F - 21.4 °F 21% 30.09 in 10.0 mi NW 6.9 mph - N/A   Scattered Clouds
9:35 AM 64.4 °F - 19.6 °F 18% 30.09 in 10.0 mi WNW 10.4 mph - N/A   Mostly Cloudy
9:55 AM 64.8 °F - 20.1 °F 18% 30.09 in 10.0 mi NW 6.9 mph - N/A   Mostly Cloudy
10:15 AM 65.8 °F - 20.3 °F 18% 30.08 in 10.0 mi SSW 4.6 mph - N/A   Overcast
10:35 AM 65.5 °F - 20.5 °F 18% 30.07 in 10.0 mi SSW 3.5 mph - N/A   Mostly Cloudy
10:55 AM 67.3 °F - 21.2 °F 17% 30.06 in 10.0 mi SSW 5.8 mph - N/A   Scattered Clouds
11:15 AM 68.9 °F - 21.9 °F 17% 30.04 in 10.0 mi West 10.4 mph - N/A   Clear
11:35 AM 66.9 °F - 21.7 °F 18% 30.04 in 10.0 mi WNW 11.5 mph - N/A   Clear
11:55 AM 67.5 °F - 22.1 °F 18% 30.02 in 10.0 mi NW 10.4 mph - N/A   Clear
12:15 PM 68.4 °F - 21.7 °F 17% 30.01 in 10.0 mi NNW 11.5 mph - N/A   Clear
12:35 PM 69.6 °F - 26.8 °F 20% 30.01 in 10.0 mi WNW 11.5 mph - N/A   Clear
12:55 PM 68.9 °F - 26.2 °F 20% 30.00 in 10.0 mi West 11.5 mph - N/A   Scattered Clouds
1:15 PM 68.2 °F - 26.2 °F 21% 29.98 in 10.0 mi WNW 9.2 mph - N/A   Scattered Clouds
1:55 PM 68.0 °F - 27.9 °F 22% 29.96 in 10.0 mi WNW 9.2 mph - N/A   Scattered Clouds
2:15 PM 68.0 °F - 28.9 °F 23% 29.96 in 10.0 mi WNW 8.1 mph - N/A   Mostly Cloudy
2:35 PM 67.3 °F - 29.3 °F 24% 29.96 in 10.0 mi West 9.2 mph - N/A   Mostly Cloudy
2:55 PM 66.9 °F - 30.6 °F 26% 29.96 in 10.0 mi West 8.1 mph - N/A   Scattered Clouds
3:15 PM 65.7 °F - 33.4 °F 30% 29.95 in 10.0 mi WSW 8.1 mph - N/A   Scattered Clouds
3:35 PM 65.3 °F - 33.6 °F 31% 29.95 in 10.0 mi WSW 6.9 mph - N/A   Scattered Clouds
3:55 PM 64.6 °F - 33.1 °F 31% 29.96 in 10.0 mi West 8.1 mph - N/A   Mostly Cloudy
4:15 PM 63.7 °F - 36.3 °F 36% 29.96 in 10.0 mi West 6.9 mph - N/A Rain Light Rain
4:35 PM 61.9 °F - 38.7 °F 42% 29.96 in 10.0 mi West 4.6 mph - N/A Rain Rain
4:55 PM 55.2 °F - 50.4 °F 84% 30.00 in 5.0 mi SW 20.7 mph 31.1 mph 0.03 in Rain Heavy Rain
5:15 PM 53.2 °F - 50.7 °F 91% 30.02 in 10.0 mi SSW 16.1 mph 21.9 mph 0.01 in Rain Rain
5:35 PM 52.3 °F - 50.7 °F 94% 30.02 in 7.0 mi SW 8.1 mph - 0.05 in Rain Rain
5:55 PM 51.8 °F - 49.6 °F 92% 30.02 in 7.0 mi West 5.8 mph - 0.10 in Rain Rain
6:15 PM 50.5 °F - 48.4 °F 92% 30.00 in 10.0 mi North 11.5 mph - 0.03 in Rain Rain
6:35 PM 50.0 °F - 47.7 °F 92% 29.98 in 10.0 mi North 10.4 mph - 0.03 in   Mostly Cloudy
6:55 PM 50.0 °F - 47.1 °F 90% 29.98 in 10.0 mi North 6.9 mph - 0.03 in   Clear
7:15 PM 50.2 °F - 47.3 °F 90% 29.98 in 10.0 mi North 8.1 mph - N/A   Mostly Cloudy
7:35 PM 50.4 °F - 48.0 °F 92% 29.98 in 10.0 mi Calm Calm - N/A Rain Light Rain
7:55 PM 50.5 °F - 48.2 °F 92% 29.95 in 10.0 mi ENE 6.9 mph - 0.01 in Rain Light Rain
8:15 PM 50.7 °F - 48.2 °F 91% 29.94 in 10.0 mi ENE 9.2 mph - N/A   Overcast
8:35 PM 51.1 °F - 48.2 °F 90% 29.95 in 10.0 mi East 4.6 mph - N/A Rain Light Rain
8:55 PM 50.5 °F - 47.7 °F 90% 29.93 in 10.0 mi ENE 8.1 mph - 0.02 in   Overcast
9:15 PM 50.7 °F - 47.7 °F 89% 29.94 in 10.0 mi NE 3.5 mph - N/A   Overcast
9:35 PM 50.2 °F - 48.2 °F 93% 29.94 in 10.0 mi Calm Calm - N/A   Mostly Cloudy
9:55 PM 50.0 °F - 47.7 °F 92% 29.92 in 10.0 mi Calm Calm - N/A   Mostly Cloudy
10:15 PM 49.1 °F - 47.7 °F 95% 29.90 in 10.0 mi Calm Calm - N/A Thunderstorm Overcast
10:35 PM 49.6 °F - 48.2 °F 95% 29.91 in 10.0 mi Calm Calm - N/A   Overcast
10:55 PM 49.8 °F - 48.4 °F 95% 29.90 in 10.0 mi East 5.8 mph - N/A Thunderstorm Overcast
11:15 PM 50.4 °F - 48.2 °F 92% 29.90 in 10.0 mi SSE 3.5 mph - N/A   Overcast
11:35 PM 50.0 °F - 48.4 °F 94% 29.89 in 10.0 mi WSW 3.5 mph - N/A Rain Light Rain
11:55 PM 50.0 °F - 48.7 °F 95% 29.88 in 10.0 mi Calm Calm - N/A Rain Light Rain